Tracking 25710 objects as of 6-Jul-2022
HD Live streaming from Space Station
objects crossing your sky now

COSMOS 970 DEB

Track COSMOS 970 DEB now!
10-day predictions


NORAD ID: 13503
Int'l Code: 1977-121BA
Perigee: 1,008.1 km
Apogee: 1,140.0 km
Inclination: 66.5 °
Period: 106.6 minutes
Semi major axis: 7445 km
RCS: 0.0157 m2 (small)
Launch date: December 21, 1977
Source: Commonwealth of Independent States (former USSR) (CIS)
Launch site: TYURATAM MISSILE AND SPACE COMPLEX (TTMTR)

Note: This is SATELLITE DEBRIS
aabbcc
Your satellite tracking list
Your tracking list is empty




NASA's NSSDC Master Catalog

Two Line Element Set (TLE):
1 13503U 77121BA  22187.55013037  .00000036  00000-0  16161-3 0  9991
2 13503  66.4708 273.7461 0088577 229.0089 237.1826 13.51451600962316
Source of the keplerian elements: AFSPC